Oceana NAS, VA

10:05 PM EDT on July 25, 2017 (GMT -0400)
Oceana Naval Air Station

Weather History for KNTU - February, 2012

Change the Weather History Date:

Sunday, February 5, 2012

  Actual Average Record
Temperature  
Mean Temperature 41 °F -  
Max Temperature 45 °F 48 °F 73 °F (2008)
Min Temperature 36 °F 32 °F 18 °F (2009)
Degree Days  
Heating Degree Days 24    
Moisture  
Dew Point 38 °F    
Average Humidity 85    
Maximum Humidity 93    
Minimum Humidity 67    
Precipitation  
Precipitation 0.29 in - - ()
Sea Level Pressure  
Sea Level Pressure 30.09 in    
Wind  
Wind Speed 8 mph (NNE)    
Max Wind Speed 20 mph    
Max Gust Speed 23 mph    
Visibility 6 miles    
Events Rain    
Averages and records for this station are not official NWS values.
T = Trace of Precipitation, MM = Missing Value Source: NWS Daily Summary

Daily Weather History Graph

Daily Weather History Graph

Search for Another Location

Airport or City:

Trip Planner

Search our weather history database for the weather conditions in past years. The results will help you decide how hot, cold, wet, or windy it might be!

Date:

Astronomy

Feb. 05, 2012 Rise Set
Actual Time 7:03 AM EST 5:33 PM EST
Civil Twilight 6:36 AM EST 6:00 PM EST
Nautical Twilight 6:05 AM EST 6:31 PM EST
Astronomical Twilight 5:35 AM EST 7:01 PM EST
Moon 3:31 PM EST (2/5) 5:10 AM EST (2/5)
Length of Visible Light 11h 24m
Length of Day
10h 30m
Waxing Gibbous, 94% of the Moon is Illuminated
Feb 5
Waxing Gibbous
Feb 7
Full
Feb 14
Last Quarter
Feb 21
New
Feb 29
First Quarter

Hourly Weather History & Observations

Time (EST) Temp. Windchill Dew Point Humidity Pressure Visibility Wind Dir Wind Speed Gust Speed Precip Events Conditions
12:56 AM 45.0 °F 39.7 °F 42.1 °F 90% 30.06 in 5.0 mi NNE 10.4 mph - 0.01 in Rain Light Rain
1:56 AM 45.0 °F 41.2 °F 42.1 °F 90% 30.06 in 4.0 mi NNE 6.9 mph - 0.05 in Rain Light Rain
2:40 AM 44.6 °F 42.2 °F 42.8 °F 93% 30.04 in 4.0 mi North 4.6 mph - 0.01 in   Overcast
2:49 AM 44.6 °F 43.1 °F 42.8 °F 93% 30.04 in 4.0 mi NNE 3.5 mph - 0.01 in Rain Light Rain
2:56 AM 45.0 °F 43.5 °F 42.1 °F 90% 30.04 in 5.0 mi NNE 3.5 mph - 0.01 in Rain Light Rain
3:56 AM 44.1 °F 41.5 °F 41.0 °F 89% 30.04 in 2.5 mi North 4.6 mph - 0.02 in Rain Light Rain
4:14 AM 44.6 °F 42.2 °F 42.8 °F 93% 30.02 in 3.0 mi North 4.6 mph - 0.00 in Rain Light Rain
4:40 AM 44.6 °F 42.2 °F 42.8 °F 93% 30.02 in 2.0 mi NNE 4.6 mph - 0.01 in Rain Light Rain
4:56 AM 44.1 °F 40.1 °F 42.1 °F 93% 30.03 in 3.0 mi NNE 6.9 mph - 0.02 in Rain Light Rain
5:56 AM 43.0 °F 37.7 °F 41.0 °F 93% 30.03 in 4.0 mi NNE 9.2 mph - 0.07 in Rain Light Rain
6:56 AM 43.0 °F 37.7 °F 39.9 °F 89% 30.04 in 5.0 mi NNE 9.2 mph - 0.05 in Rain Light Rain
7:42 AM 42.8 °F 36.2 °F 41.0 °F 93% 30.03 in 1.5 mi NNE 12.7 mph - 0.03 in Rain Light Rain
7:56 AM 43.0 °F 37.2 °F 39.9 °F 89% 30.04 in 1.5 mi NNE 10.4 mph - 0.04 in Rain Light Rain
8:07 AM 42.8 °F 37.5 °F 39.2 °F 87% 30.04 in 2.0 mi NNE 9.2 mph - 0.00 in Rain Light Rain
8:47 AM 42.8 °F 37.0 °F 41.0 °F 93% 30.05 in 4.0 mi North 10.4 mph - 0.01 in Rain Light Rain
8:56 AM 43.0 °F 37.2 °F 41.0 °F 93% 30.06 in 4.0 mi NNE 10.4 mph - 0.02 in Rain Light Rain
9:01 AM 42.8 °F 36.6 °F 39.2 °F 87% 30.05 in 5.0 mi NNE 11.5 mph - 0.00 in   Overcast
9:56 AM 43.0 °F 36.4 °F 39.9 °F 89% 30.08 in 4.0 mi NNE 12.7 mph - 0.00 in   Overcast
10:56 AM 43.0 °F 37.2 °F 39.9 °F 89% 30.09 in 3.0 mi NNE 10.4 mph - N/A   Overcast
11:56 AM 43.0 °F 37.2 °F 39.0 °F 86% 30.08 in 3.0 mi North 10.4 mph - N/A   Overcast
12:56 PM 44.1 °F 38.6 °F 39.0 °F 82% 30.08 in 6.0 mi North 10.4 mph - N/A   Overcast
1:56 PM 44.1 °F 38.6 °F 37.9 °F 79% 30.07 in 8.0 mi North 10.4 mph - N/A   Overcast
2:56 PM 44.1 °F 36.2 °F 37.0 °F 76% 30.08 in 10.0 mi NNE 18.4 mph - N/A   Overcast
3:56 PM 43.0 °F 35.7 °F 37.0 °F 80% 30.12 in 10.0 mi North 15.0 mph - N/A   Overcast
4:56 PM 42.1 °F 33.3 °F 34.0 °F 73% 30.15 in 10.0 mi North 19.6 mph 23.0 mph N/A   Overcast
5:56 PM 42.1 °F 36.1 °F 32.0 °F 67% 30.18 in 10.0 mi North 10.4 mph - N/A   Mostly Cloudy
6:56 PM 39.9 °F 32.9 °F 30.9 °F 70% 30.19 in 10.0 mi North 11.5 mph 17.3 mph N/A   Mostly Cloudy
7:56 PM 37.9 °F 33.5 °F 30.0 °F 73% 30.22 in 10.0 mi North 5.8 mph - N/A   Scattered Clouds
8:56 PM 37.0 °F 33.3 °F 30.0 °F 76% 30.24 in 10.0 mi North 4.6 mph - N/A   Clear
9:56 PM 37.9 °F 33.5 °F 30.9 °F 76% 30.24 in 10.0 mi NNE 5.8 mph - N/A   Clear
10:56 PM 37.0 °F 31.6 °F 28.0 °F 70% 30.24 in 10.0 mi NNE 6.9 mph - N/A   Clear
11:56 PM 36.0 °F - 28.0 °F 73% 30.25 in 10.0 mi Calm Calm - N/A   Partly Cloudy